Terminal Aerodrome Forecast
Issued by NWS Quad Cities IA IL

Home | Current Version | Previous Version | Text Only | Print | Product List | Glossary On
Versions: 1 2 3 4 5 6 7 8 9 10 11 12 13 14 15 16 17 18 19 20 21 22 23 24 25 26 27 28 29 30 31 32 33
599
FTUS43 KDVN 060135 AAB
TAFDBQ
TAF AMD
KDBQ 060135Z 0602/0624 16016KT 1/2SM FZFG VV002
     FM060500 16012KT 1/4SM FZFG VV001
     FM061400 24007KT 2SM BR OVC004
     FM061700 27015G25KT 6SM BR BKN050=

USA.gov is the U.S. government's official web portal to all federal, state and local government web resources and services.